TimeCDT,TemperatureF,Dew PointF,Humidity,Sea Level PressureIn,VisibilityMPH,Wind Direction,Wind SpeedMPH,Gust SpeedMPH,PrecipitationIn,Events,Conditions,WindDirDegrees,DateUTC
12:10 AM,35.8,34.7,96,29.85,10.0,NW,8.1,-,N/A,Rain,Light Rain,310,2014-05-04 05:10:00
12:30 AM,35.8,34.9,97,29.85,10.0,NW,8.1,-,0.01,Rain,Light Rain,310,2014-05-04 05:30:00
12:50 AM,35.6,34.7,97,29.85,10.0,WNW,3.5,-,0.01,,Overcast,300,2014-05-04 05:50:00
1:10 AM,35.1,34.7,99,29.85,10.0,WNW,3.5,-,N/A,,Overcast,300,2014-05-04 06:10:00
1:30 AM,35.2,34.7,98,29.85,10.0,NW,4.6,-,N/A,Rain,Light Rain,310,2014-05-04 06:30:00
1:50 AM,35.6,32.0,87,29.85,10.0,NW,6.9,-,N/A,,Overcast,310,2014-05-04 06:50:00
2:10 AM,34.7,32.4,91,29.85,10.0,NW,10.4,-,N/A,,Mostly Cloudy,310,2014-05-04 07:10:00
2:30 AM,34.7,30.0,83,29.86,10.0,NW,13.8,18.4,N/A,,Mostly Cloudy,320,2014-05-04 07:30:00
2:50 AM,33.6,29.1,84,29.86,10.0,NW,6.9,-,N/A,,Scattered Clouds,310,2014-05-04 07:50:00
3:10 AM,32.2,28.6,87,29.87,10.0,West,5.8,-,N/A,,Scattered Clouds,280,2014-05-04 08:10:00
3:30 AM,32.0,28.9,88,29.88,10.0,WNW,8.1,-,N/A,,Clear,290,2014-05-04 08:30:00
3:50 AM,32.4,28.2,85,29.88,10.0,WNW,9.2,-,N/A,,Clear,290,2014-05-04 08:50:00
4:10 AM,32.0,28.0,85,29.89,10.0,WNW,6.9,-,N/A,,Clear,290,2014-05-04 09:10:00
4:30 AM,32.9,28.4,84,29.90,10.0,WNW,10.4,17.3,N/A,,Mostly Cloudy,300,2014-05-04 09:30:00
5:10 AM,32.9,27.5,81,29.91,10.0,WNW,9.2,-,N/A,,Mostly Cloudy,300,2014-05-04 10:10:00
5:30 AM,32.9,27.5,81,29.92,10.0,WNW,8.1,-,N/A,,Mostly Cloudy,300,2014-05-04 10:30:00
5:50 AM,32.7,27.5,81,29.93,10.0,WNW,9.2,-,N/A,,Overcast,300,2014-05-04 10:50:00
6:10 AM,32.7,27.1,80,29.93,10.0,NW,9.2,17.3,N/A,,Mostly Cloudy,320,2014-05-04 11:10:00
6:30 AM,33.6,27.1,77,29.94,10.0,NW,11.5,18.4,N/A,,Overcast,320,2014-05-04 11:30:00
6:50 AM,33.8,27.3,77,29.94,10.0,NW,17.3,24.2,N/A,,Overcast,310,2014-05-04 11:50:00
7:10 AM,34.0,27.5,77,29.95,10.0,NNW,13.8,19.6,N/A,,Overcast,340,2014-05-04 12:10:00
7:30 AM,34.2,27.9,78,29.96,10.0,NNW,11.5,18.4,N/A,,Overcast,330,2014-05-04 12:30:00
7:50 AM,34.7,28.0,77,29.97,10.0,NW,13.8,18.4,N/A,,Overcast,320,2014-05-04 12:50:00
8:10 AM,35.6,28.4,75,29.97,10.0,NNW,11.5,17.3,N/A,,Overcast,340,2014-05-04 13:10:00
8:30 AM,36.1,28.9,75,29.98,10.0,NNW,10.4,17.3,N/A,,Overcast,340,2014-05-04 13:30:00
8:50 AM,36.5,28.6,73,29.99,10.0,NNW,11.5,-,N/A,,Overcast,340,2014-05-04 13:50:00
9:50 AM,37.8,28.6,69,30.02,10.0,NNW,13.8,-,N/A,,Overcast,340,2014-05-04 14:50:00
10:10 AM,38.3,28.8,69,30.03,10.0,NNW,11.5,-,N/A,,Overcast,330,2014-05-04 15:10:00
10:30 AM,39.4,28.6,65,30.03,10.0,NNW,8.1,16.1,N/A,,Overcast,330,2014-05-04 15:30:00
10:50 AM,39.7,28.8,65,30.04,10.0,NNW,8.1,-,N/A,,Overcast,340,2014-05-04 15:50:00
11:10 AM,40.5,28.6,63,30.05,10.0,NNW,6.9,-,N/A,,Overcast,340,2014-05-04 16:10:00
11:30 AM,42.4,29.1,59,30.05,10.0,NW,9.2,16.1,N/A,,Overcast,310,2014-05-04 16:30:00
11:50 AM,43.2,28.8,57,30.05,10.0,NW,11.5,-,N/A,,Overcast,320,2014-05-04 16:50:00
12:10 PM,44.1,29.5,57,30.05,10.0,North,8.1,-,N/A,,Overcast,360,2014-05-04 17:10:00
12:30 PM,44.1,28.2,54,30.05,10.0,WNW,4.6,-,N/A,,Mostly Cloudy,300,2014-05-04 17:30:00
12:50 PM,46.4,28.6,50,30.05,10.0,NW,9.2,-,N/A,,Mostly Cloudy,320,2014-05-04 17:50:00
1:10 PM,46.0,27.3,48,30.04,10.0,North,4.6,-,N/A,,Mostly Cloudy,360,2014-05-04 18:10:00
1:30 PM,47.5,27.7,46,30.04,10.0,North,8.1,19.6,N/A,,Mostly Cloudy,350,2014-05-04 18:30:00
1:50 PM,48.0,27.0,44,30.04,10.0,North,10.4,-,N/A,,Mostly Cloudy,10,2014-05-04 18:50:00
2:10 PM,48.4,27.1,44,30.04,10.0,NNW,6.9,-,N/A,,Scattered Clouds,330,2014-05-04 19:10:00
2:30 PM,48.6,25.0,40,30.04,10.0,NW,8.1,-,N/A,,Scattered Clouds,320,2014-05-04 19:30:00
2:50 PM,49.6,27.0,41,30.04,10.0,NE,5.8,-,N/A,,Scattered Clouds,40,2014-05-04 19:50:00
3:10 PM,49.8,25.9,39,30.04,10.0,NNE,9.2,-,N/A,,Scattered Clouds,30,2014-05-04 20:10:00
3:30 PM,50.0,25.5,39,30.04,10.0,NE,8.1,-,N/A,,Scattered Clouds,40,2014-05-04 20:30:00
3:50 PM,51.4,25.9,37,30.04,10.0,North,9.2,-,N/A,,Mostly Cloudy,360,2014-05-04 20:50:00
4:10 PM,50.9,24.4,36,30.03,10.0,NNE,8.1,-,N/A,,Scattered Clouds,30,2014-05-04 21:10:00
4:30 PM,50.4,22.6,34,30.03,10.0,NW,4.6,-,N/A,,Scattered Clouds,320,2014-05-04 21:30:00
4:50 PM,51.1,20.1,30,30.03,10.0,Calm,Calm,-,N/A,,Scattered Clouds,0,2014-05-04 21:50:00
5:10 PM,51.6,21.9,31,30.03,10.0,North,5.8,-,N/A,,Scattered Clouds,350,2014-05-04 22:10:00
5:30 PM,51.4,21.4,31,30.03,10.0,North,4.6,-,N/A,,Scattered Clouds,350,2014-05-04 22:30:00
5:50 PM,50.7,20.8,31,30.03,10.0,Calm,Calm,-,N/A,,Scattered Clouds,0,2014-05-04 22:50:00
6:10 PM,50.5,20.7,31,30.03,10.0,Calm,Calm,-,N/A,,Clear,0,2014-05-04 23:10:00
6:30 PM,50.4,21.7,33,30.03,10.0,NNE,6.9,-,N/A,,Clear,30,2014-05-04 23:30:00
6:50 PM,50.0,21.6,33,30.03,10.0,NNE,4.6,-,N/A,,Clear,20,2014-05-04 23:50:00
7:10 PM,48.7,21.2,34,30.03,10.0,Calm,Calm,-,N/A,,Clear,0,2014-05-05 00:10:00
7:30 PM,47.3,23.2,39,30.03,10.0,NE,4.6,-,N/A,,Clear,50,2014-05-05 00:30:00
7:50 PM,46.2,23.7,41,30.03,10.0,East,4.6,-,N/A,,Clear,90,2014-05-05 00:50:00
8:10 PM,45.5,23.9,43,30.04,10.0,ENE,3.5,-,N/A,,Clear,70,2014-05-05 01:10:00
8:30 PM,42.1,27.1,55,30.04,10.0,Calm,Calm,-,N/A,,Clear,0,2014-05-05 01:30:00
8:50 PM,40.3,28.9,64,30.05,10.0,Calm,Calm,-,N/A,,Clear,0,2014-05-05 01:50:00
9:10 PM,39.2,30.0,70,30.06,10.0,Calm,Calm,-,N/A,,Clear,0,2014-05-05 02:10:00
9:30 PM,37.0,28.6,71,30.06,10.0,Calm,Calm,-,N/A,,Clear,0,2014-05-05 02:30:00
9:50 PM,37.6,29.3,72,30.06,10.0,Calm,Calm,-,N/A,,Clear,0,2014-05-05 02:50:00
10:10 PM,36.1,28.8,75,30.06,10.0,Calm,Calm,-,N/A,,Clear,0,2014-05-05 03:10:00
10:50 PM,35.4,27.1,72,30.06,10.0,Calm,Calm,-,N/A,,Clear,0,2014-05-05 03:50:00
11:10 PM,36.3,28.8,74,30.05,10.0,Calm,Calm,-,N/A,,Clear,0,2014-05-05 04:10:00
11:30 PM,35.8,28.8,76,30.06,10.0,Calm,Calm,-,N/A,,Clear,0,2014-05-05 04:30:00
11:50 PM,37.4,27.3,67,30.06,10.0,Calm,Calm,-,N/A,,Clear,0,2014-05-05 04:50:00